Weather History for EQBH - February, 2014

Change the Weather History Date:

Saturday, February 22, 2014

  Actual Average Record
Temperature  
Mean Temperature 50 °F -  
Max Temperature 62 °F - - ()
Min Temperature 39 °F - - ()
Degree Days  
Heating Degree Days 14    
Moisture  
Dew Point 29 °F    
Average Humidity 46    
Maximum Humidity 76    
Minimum Humidity 19    
Precipitation  
Precipitation 0.00 in - - ()
Sea Level Pressure  
Sea Level Pressure 30.15 in    
Wind  
Wind Speed 5 mph ()    
Max Wind Speed 13 mph    
Max Gust Speed -    
Visibility 6.2 miles    
Events      
T = Trace of Precipitation, MM = Missing Value Source: Averaged Metar Reports

Daily Weather History Graph

Daily Weather History Graph

Search for Another Location

Airport or City:

Trip Planner

Search our weather history database for the weather conditions in past years. The results will help you decide how hot, cold, wet, or windy it might be!

Date:

Astronomy

Feb. 22, 2014 Rise Set
Actual Time 6:48 AM AFT 6:05 PM AFT
Civil Twilight 6:23 AM AFT 6:30 PM AFT
Nautical Twilight 5:55 AM AFT 6:58 PM AFT
Astronomical Twilight 5:27 AM AFT 7:26 PM AFT
Moon No Moon Rise 11:04 AM AFT (2/22)
Length of Visible Light 12h 06m
Length of Day
11h 16m
Waning Gibbous, 54% of the Moon is Illuminated
Feb 22
Waning Gibbous
Feb 22
Last Quarter
Mar 1
New
Mar 8
First Quarter
Mar 16
Full

Hourly Weather History & Observations

Time (AFT) Temp. Windchill Dew Point Humidity Pressure Visibility Wind Dir Wind Speed Gust Speed Precip Events Conditions
12:20 AM 48.2 °F - 30.2 °F 50% 30.12 in 6.2 mi NW 5.8 mph - N/A   Scattered Clouds
1:20 AM 44.6 °F 41.4 °F 32.0 °F 61% 30.12 in 6.2 mi NNW 5.8 mph - N/A   Scattered Clouds
2:20 AM 42.8 °F 41.1 °F 33.8 °F 70% 30.12 in 6.2 mi NNE 3.5 mph - N/A   Scattered Clouds
3:20 AM 44.6 °F 40.7 °F 32.0 °F 61% 30.12 in 6.2 mi NNE 6.9 mph - N/A   Mostly Cloudy
4:20 AM 42.8 °F 41.1 °F 32.0 °F 66% 30.09 in 6.2 mi North 3.5 mph - N/A   Scattered Clouds
5:20 AM 41.0 °F 37.1 °F 33.8 °F 76% 30.12 in 6.2 mi North 5.8 mph - N/A   Partly Cloudy
6:20 AM 39.2 °F 35.9 °F 32.0 °F 75% 30.15 in 6.2 mi NNE 4.6 mph - N/A   Partly Cloudy
7:20 AM 39.2 °F 35.0 °F 32.0 °F 75% 30.15 in 6.2 mi NNE 5.8 mph - N/A   Partly Cloudy
8:20 AM 42.8 °F 38.6 °F 33.8 °F 70% 30.18 in 6.2 mi NE 6.9 mph - N/A   Partly Cloudy
9:20 AM 50.0 °F - 33.8 °F 54% 30.18 in 6.2 mi ENE 12.7 mph - N/A   Partly Cloudy
10:20 AM 53.6 °F - 32.0 °F 44% 30.21 in 6.2 mi East 10.4 mph - N/A   Scattered Clouds
11:20 AM 57.2 °F - 30.2 °F 36% 30.21 in 6.2 mi East 8.1 mph - N/A   Scattered Clouds
12:20 PM 60.8 °F - 30.2 °F 31% 30.18 in 6.2 mi ESE 6.9 mph - N/A   Mostly Cloudy
1:20 PM 60.8 °F - 28.4 °F 29% 30.15 in 6.2 mi SE 5.8 mph - N/A   Mostly Cloudy
2:20 PM 60.8 °F - 24.8 °F 25% 30.12 in 6.2 mi SSE 5.8 mph - N/A   Mostly Cloudy
3:20 PM 62.6 °F - 23.0 °F 22% 30.12 in 6.2 mi East 3.5 mph - N/A   Mostly Cloudy
4:20 PM 62.6 °F - 19.4 °F 19% 30.12 in 6.2 mi SSE 2.3 mph - N/A   Scattered Clouds
5:20 PM 60.8 °F - 17.6 °F 19% 30.12 in 6.2 mi SSE 3.5 mph - N/A   Scattered Clouds
6:20 PM 59.0 °F - 21.2 °F 23% 30.12 in 6.2 mi SSE 2.3 mph - N/A   Mostly Cloudy
7:20 PM 57.2 °F - 23.0 °F 27% 30.15 in 6.2 mi ESE 2.3 mph - N/A   Scattered Clouds
8:20 PM 55.4 °F - 23.0 °F 29% 30.15 in 6.2 mi SSE 1.2 mph - N/A   Partly Cloudy
9:20 PM 51.8 °F - 28.4 °F 41% 30.18 in 6.2 mi North 4.6 mph - N/A   Mostly Cloudy
10:20 PM 48.2 °F - 30.2 °F 50% 30.18 in 6.2 mi North 6.9 mph - N/A   Scattered Clouds
11:20 PM 46.4 °F 42.9 °F 32.0 °F 57% 30.18 in 6.2 mi North 6.9 mph - N/A   Partly Cloudy